KCVG Airport Diagram

We have created a template for each of the higher traffic airports in the vZID airspace. They include KCMH, KCRW, KCVG, KDAY, KIND, KLEX and KSDF. You wil find usefull information including the airport diagram, weather, and specific airport procedures.

KCVG Weather

[Source: ADDS]
METAR
KCVG 241552Z 20008KT 10SM FEW130 08/M03 A2996 RMK AO2 SLP147 T00831033 =
TAF
KCVG 241458Z 2415/2518 19010KT P6SM FEW250 FM250200 20009KT P6SM BKN250 WS020/22040KT FM250800 22010KT P6SM BKN100 FM251400 27008KT P6SM SCT050 =

KCVG Operations

Calm Wind Configuration is Landing runways 36C and 36R, departing runway 27.

You can expect  this configuration up to and including a 10 knot tailwind.

The Center runway is the old 18R/36L in the default scenery. Additionally, runway 9/27 was lengthened to 12,000 feet when the west runway (18R/36L) was added.

New Scenery is available at FlightSim.com.

On initial contact, arriving aircraft should notify the the controller which scenery they have.

 

JSN Epic template designed by JoomlaShine.com